| time (UTC) | temp C | wind direction | speed KPH | gust KPH | rain 1hr cm | rain 24hr cm | rain mn cm | humidity % | barometer mb |
| 20260506061536 | 23 | 178 | 6.4 | 25.7 | 0.00 | 0.00 | 0.00 | 91 | 1005.6 |
| 20260506044510 | 22 | 153 | 3.2 | 14.5 | 0.00 | 0.00 | 0.00 | 89 | 1005.4 |
| 20260506043009 | 22 | 182 | 1.6 | 9.7 | 0.00 | 0.00 | 0.00 | 88 | 1005.4 |
| 20260506041509 | 23 | 187 | 0.0 | 6.4 | 0.00 | 0.00 | 0.00 | 88 | 1005.5 |
| 20260506040030 | 23 | 180 | 0.0 | 8.0 | 0.00 | 0.00 | 0.00 | 88 | 1005.2 |
| 20260506034508 | 23 | 184 | 0.0 | 4.8 | 0.00 | 0.00 | 0.00 | 87 | 1005.4 |
| 20260506033007 | 23 | 174 | 0.0 | 3.2 | 0.00 | 0.00 | 0.00 | 86 | 1005.2 |
| 20260506031517 | 23 | 173 | 0.0 | 8.0 | 0.00 | 0.00 | 0.00 | 86 | 1004.9 |
| 20260506030008 | 23 | 205 | 1.6 | 11.3 | 0.00 | 0.00 | 0.00 | 85 | 1004.7 |
| 20260506024516 | 23 | 164 | 0.0 | 3.2 | 0.00 | 0.00 | 0.00 | 84 | 1004.4 |
| 20260506023005 | 23 | 155 | 0.0 | 4.8 | 0.00 | 0.00 | 0.00 | 83 | 1004.2 |
| 20260506021506 | 24 | 165 | 0.0 | 3.2 | 0.00 | 0.00 | 0.00 | 82 | 1004.1 |
| 20260506020005 | 24 | 163 | 0.0 | 3.2 | 0.00 | 0.00 | 0.00 | 81 | 1003.9 |
| 20260506014508 | 25 | 360 | 0.0 | 6.4 | 0.00 | 0.00 | 0.00 | 80 | 1003.7 |
| 20260506013004 | 25 | 360 | 0.0 | 8.0 | 0.00 | 0.00 | 0.00 | 79 | 1003.4 |
| 20260506011504 | 25 | 360 | 0.0 | 6.4 | 0.00 | 0.00 | 0.00 | 78 | 1003.3 |
| 20260506010008 | 26 | 153 | 0.0 | 8.0 | 0.00 | 0.00 | 0.00 | 76 | 1003.3 |
| 20260506004506 | 26 | 146 | 0.0 | 8.0 | 0.00 | 0.00 | 0.00 | 73 | 1003.1 |
| 20260506003004 | 27 | 174 | 0.0 | 8.0 | 0.00 | 0.00 | 0.00 | 70 | 1003.1 |
| 20260506001502 | 27 | 159 | 1.6 | 12.9 | 0.00 | 0.00 | 0.00 | 69 | 1003.2 |
| 20260506000001 | 27 | 187 | 1.6 | 14.5 | 0.00 | 0.00 | 0.00 | 69 | 1003.2 |
| 20260505234501 | 27 | 190 | 4.8 | 16.1 | 0.00 | 0.00 | 0.00 | 67 | 1003.2 |
| 20260505233111 | 27 | 192 | 11.3 | 22.5 | 0.00 | 0.00 | 0.00 | 67 | 1003.2 |
| 20260505231606 | 28 | 193 | 11.3 | 22.5 | 0.00 | 0.00 | 0.00 | 66 | 1003.2 |
| 20260505230059 | 28 | 360 | 8.0 | 19.3 | 0.00 | 0.00 | 0.00 | 66 | 1003.0 |
| 20260505224559 | 28 | 215 | 9.7 | 25.7 | 0.00 | 0.00 | 0.00 | 65 | 1002.9 |
| 20260505223058 | 28 | 185 | 8.0 | 27.4 | 0.00 | 0.00 | 0.00 | 64 | 1003.0 |
| 20260505221558 | 28 | 360 | 4.8 | 30.6 | 0.00 | 0.00 | 0.00 | 65 | 1003.0 |
| 20260505220057 | 28 | 209 | 11.3 | 24.1 | 0.00 | 0.00 | 0.00 | 64 | 1002.9 |
| 20260505214559 | 28 | 360 | 11.3 | 22.5 | 0.00 | 0.00 | 0.00 | 64 | 1003.1 |
| 20260505213052 | 28 | 228 | 4.8 | 14.5 | 0.00 | 0.00 | 0.00 | 67 | 1003.4 |
| 20260505211606 | 28 | 198 | 4.8 | 19.3 | 0.00 | 0.00 | 0.00 | 67 | 1003.4 |
| 20260505210049 | 28 | 178 | 11.3 | 29.0 | 0.00 | 0.00 | 0.00 | 66 | 1003.6 |
| 20260505204548 | 28 | 360 | 3.2 | 27.4 | 0.00 | 0.00 | 0.00 | 67 | 1003.7 |
| 20260505203048 | 28 | 184 | 11.3 | 24.1 | 0.00 | 0.00 | 0.00 | 65 | 1003.9 |
| 20260505201545 | 28 | 360 | 11.3 | 27.4 | 0.00 | 0.00 | 0.00 | 66 | 1004.0 |
| 20260505200047 | 27 | 192 | 12.9 | 27.4 | 0.00 | 0.00 | 0.00 | 66 | 1004.1 |
| 20260505194541 | 27 | 198 | 9.7 | 24.1 | 0.00 | 0.00 | 0.00 | 67 | 1004.3 |
| 20260505193039 | 27 | 201 | 9.7 | 32.2 | 0.00 | 0.00 | 0.00 | 68 | 1004.2 |
| 20260505191540 | 27 | 244 | 11.3 | 27.4 | 0.00 | 0.00 | 0.00 | 68 | 1004.5 |
| 20260505190040 | 27 | 221 | 12.9 | 25.7 | 0.00 | 0.00 | 0.00 | 69 | 1004.8 |
| 20260505184531 | 26 | 209 | 9.7 | 25.7 | 0.00 | 0.00 | 0.00 | 71 | 1005.0 |
| 20260505183032 | 26 | 240 | 16.1 | 33.8 | 0.00 | 0.00 | 0.00 | 72 | 1005.4 |
| 20260505181526 | 26 | 200 | 12.9 | 30.6 | 0.00 | 0.00 | 0.00 | 75 | 1005.5 |
| 20260505180023 | 25 | 243 | 9.7 | 32.2 | 0.00 | 0.00 | 0.00 | 76 | 1005.8 |
| 20260505174520 | 25 | 360 | 16.1 | 33.8 | 0.00 | 0.00 | 0.00 | 76 | 1005.7 |
| 20260505173017 | 24 | 360 | 17.7 | 37.0 | 0.00 | 0.00 | 0.00 | 78 | 1005.9 |
| 20260505171521 | 23 | 360 | 22.5 | 41.8 | 0.00 | 0.00 | 0.00 | 78 | 1006.1 |
| 20260505170017 | 23 | 360 | 17.7 | 33.8 | 0.00 | 0.00 | 0.00 | 79 | 1006.0 |
| 20260505164511 | 23 | 360 | 22.5 | 35.4 | 0.00 | 0.00 | 0.00 | 80 | 1006.2 |
| 20260505163010 | 23 | 360 | 14.5 | 33.8 | 0.00 | 0.00 | 0.00 | 82 | 1006.2 |
| 20260505161509 | 23 | 360 | 22.5 | 33.8 | 0.00 | 0.00 | 0.00 | 81 | 1006.4 |
| 20260505153004 | 22 | 360 | 16.1 | 40.2 | 0.00 | 0.00 | 0.00 | 83 | 1006.2 |
| 20260505151559 | 22 | 360 | 19.3 | 43.5 | 0.00 | 0.00 | 0.00 | 83 | 1006.1 |
| 20260505130105 | 20 | 360 | 19.3 | 43.5 | 0.00 | 0.00 | 0.00 | 89 | 1005.0 |
| 20260505124549 | 20 | 360 | 19.3 | 29.0 | 0.00 | 0.00 | 0.00 | 89 | 1004.9 |
| 20260505123044 | 20 | 360 | 14.5 | 29.0 | 0.00 | 0.00 | 0.00 | 89 | 1004.7 |
| 20260505121539 | 20 | 360 | 17.7 | 32.2 | 0.00 | 0.00 | 0.00 | 89 | 1004.6 |
| 20260505120039 | 20 | 360 | 16.1 | 29.0 | 0.00 | 0.00 | 0.00 | 89 | 1004.4 |
| 20260505114537 | 20 | 360 | 14.5 | 27.4 | 0.00 | 0.00 | 0.00 | 89 | 1004.1 |
| 20260505113036 | 20 | 360 | 9.7 | 29.0 | 0.00 | 0.00 | 0.00 | 89 | 1004.1 |
| 20260505111539 | 20 | 360 | 16.1 | 30.6 | 0.00 | 0.00 | 0.00 | 89 | 1004.1 |
| 20260505101532 | 20 | 360 | 12.9 | 30.6 | 0.00 | 0.00 | 0.00 | 88 | 1004.4 |
| 20260505100032 | 20 | 360 | 14.5 | 32.2 | 0.00 | 0.00 | 0.00 | 88 | 1004.1 |
| 20260505094527 | 20 | 360 | 16.1 | 29.0 | 0.00 | 0.00 | 0.00 | 88 | 1004.6 |
| 20260505093026 | 20 | 360 | 12.9 | 27.4 | 0.00 | 0.00 | 0.00 | 88 | 1004.6 |
| 20260505091525 | 20 | 360 | 11.3 | 29.0 | 0.00 | 0.00 | 0.00 | 88 | 1004.6 |
| 20260505090023 | 20 | 360 | 9.7 | 30.6 | 0.00 | 0.00 | 0.00 | 88 | 1004.8 |
| 20260505084523 | 20 | 360 | 12.9 | 27.4 | 0.00 | 0.00 | 0.00 | 88 | 1005.0 |
| 20260505083019 | 20 | 360 | 11.3 | 27.4 | 0.00 | 0.00 | 0.00 | 88 | 1005.1 |
| 20260505081518 | 20 | 360 | 8.0 | 37.0 | 0.00 | 0.00 | 0.00 | 88 | 1005.1 |
| 20260505080016 | 20 | 360 | 8.0 | 29.0 | 0.00 | 0.00 | 0.00 | 88 | 1005.4 |
| 20260505074512 | 20 | 360 | 11.3 | 24.1 | 0.00 | 0.00 | 0.00 | 88 | 1005.5 |
| 20260505073011 | 20 | 360 | 6.4 | 24.1 | 0.00 | 0.00 | 0.00 | 89 | 1005.7 |
| 20260505071523 | 20 | 360 | 8.0 | 22.5 | 0.00 | 0.00 | 0.00 | 89 | 1005.8 |